Akron, CO

4:58 AM MST on February 06, 2016 (GMT -0700)
Akron-Washington County

Weather History for KAKO - December, 2011

Change the Weather History Date:

Thursday, December 15, 2011

  Actual Average Record
Temperature  
Mean Temperature 30 °F 28 °F  
Max Temperature 42 °F 39 °F 64 °F (2002)
Min Temperature 17 °F 16 °F -10 °F (1940)
Degree Days  
Heating Degree Days 35    
Month to date heating degree days 609  
Cooling Degree Days 0    
Month to date cooling degree days 0  
Moisture  
Dew Point 19 °F    
Average Humidity 63    
Maximum Humidity 92    
Minimum Humidity 34    
Precipitation  
Precipitation 0.00 in 0.01 in 0.08 in (1967)
Month to date precipitation T 0.23  
Year to date precipitation 16.57  
Sea Level Pressure  
Sea Level Pressure 30.24 in    
Wind  
Wind Speed 10 mph (SW)    
Max Wind Speed 21 mph    
Max Gust Speed 24 mph    
Visibility 10 miles    
Events      
T = Trace of Precipitation, MM = Missing Value Source: NWS Daily Summary

Daily Weather History Graph

Daily Weather History Graph

Search for Another Location

Airport or City:

Trip Planner

Search our weather history database for the weather conditions in past years. The results will help you decide how hot, cold, wet, or windy it might be!

Date:

Astronomy

Dec. 15, 2011 Rise Set
Actual Time 7:07 AM MST 4:27 PM MST
Civil Twilight 6:37 AM MST 4:58 PM MST
Nautical Twilight 6:03 AM MST 5:32 PM MST
Astronomical Twilight 5:30 AM MST 6:05 PM MST
Moon 9:57 PM MST (12/15) 10:25 AM MST (12/15)
Length of Visible Light 10h 21m
Length of Day
9h 19m
Waning Gibbous, 74% of the Moon is Illuminated
Dec 15
Waning Gibbous
Dec 17
Last Quarter
Dec 24
New
Dec 31
First Quarter
Jan 9
Full

Hourly Weather History & Observations

Time (MST) Temp. Windchill Dew Point Humidity Pressure Visibility Wind Dir Wind Speed Gust Speed Precip Events Conditions
12:53 AM 30.0 °F 19.1 °F 21.0 °F 69% 30.14 in 10.0 mi NW 15.0 mph - N/A   Partly Cloudy
1:53 AM 28.0 °F 17.5 °F 21.0 °F 75% 30.15 in 10.0 mi NNW 12.7 mph - N/A   Overcast
2:53 AM 24.1 °F 17.0 °F 19.0 °F 81% 30.17 in 10.0 mi NNW 5.8 mph - N/A   Clear
3:53 AM 21.0 °F 11.4 °F 17.1 °F 85% 30.20 in 10.0 mi North 8.1 mph - N/A   Clear
4:53 AM 23.0 °F 18.4 °F 18.0 °F 81% 30.23 in 10.0 mi NNW 3.5 mph - N/A   Clear
5:53 AM 21.0 °F 12.4 °F 18.0 °F 88% 30.27 in 10.0 mi West 6.9 mph - N/A   Clear
7:53 AM 21.9 °F 12.5 °F 19.0 °F 89% 30.30 in 10.0 mi West 8.1 mph - N/A   Clear
8:53 AM 30.0 °F 23.2 °F 23.0 °F 75% 30.30 in 10.0 mi WSW 6.9 mph - N/A   Clear
9:53 AM 34.0 °F 27.2 °F 21.0 °F 59% 30.29 in 10.0 mi WSW 8.1 mph - N/A   Clear
10:53 AM 36.0 °F 32.1 °F 19.0 °F 50% 30.26 in 10.0 mi WSW 4.6 mph - N/A   Clear
12:53 PM 41.0 °F 35.2 °F 18.0 °F 40% 30.22 in 10.0 mi SSE 9.2 mph - N/A   Clear
1:53 PM 42.1 °F 36.6 °F 17.1 °F 37% 30.20 in 10.0 mi SSE 9.2 mph - N/A   Clear
2:53 PM 41.0 °F 34.7 °F 16.0 °F 36% 30.21 in 10.0 mi SSE 10.4 mph - N/A   Clear
3:53 PM 39.0 °F 33.4 °F 17.1 °F 41% 30.23 in 10.0 mi SE 8.1 mph - N/A   Clear
4:53 PM 32.0 °F 24.8 °F 17.1 °F 54% 30.25 in 10.0 mi SSE 8.1 mph - N/A   Clear
5:53 PM 30.0 °F 21.7 °F 18.0 °F 61% 30.27 in 10.0 mi South 9.2 mph - N/A   Clear
6:53 PM 28.9 °F 19.2 °F 19.0 °F 67% 30.30 in 10.0 mi South 11.5 mph - N/A   Clear
7:53 PM 27.0 °F 16.7 °F 19.0 °F 72% 30.30 in 10.0 mi South 11.5 mph - N/A   Clear
8:53 PM 28.0 °F 17.5 °F 19.9 °F 72% 30.27 in 10.0 mi South 12.7 mph - N/A   Clear
9:53 PM 26.1 °F 15.6 °F 19.0 °F 75% 30.28 in 10.0 mi South 11.5 mph - N/A   Clear
10:53 PM 26.1 °F 16.2 °F 17.1 °F 69% 30.27 in 10.0 mi SSW 10.4 mph - N/A   Clear
11:53 PM 23.0 °F 13.9 °F 16.0 °F 74% 30.27 in 10.0 mi SSW 8.1 mph - N/A   Clear